User: anonymous   Login
Location: Buffign�court
(47.8126°N, 6.0176°E)
Time: 18:38:26
(UTC+00:00)
Language:

Cosmos 2219 Rocket - Orbit

View from above orbital plane
View from above orbital plane
View from above satellite
View from above satellite

Ground track
Ground track

The orbit data is extracted from the following two-line orbital elements,

1 22220U 92076B   21262.81973115  .00000148  00000-0  98137-4 0  9995
2 22220  71.0028  24.5790 0010975  56.3590  58.0179 14.16475946490724
Epoch (UTC): 19 September 2021 19:40:24
Eccentricity: 0.0010975
inclination: 71.0028°
perigee height: 829 km
apogee height: 845 km
right ascension of ascending node: 24.5790°
argument of perigee: 56.3590°
revolutions per day: 14.16475946
mean anomaly at epoch: 58.0179°
orbit number at epoch: 49072

The dashed part of the orbit path shows where the satellite is in the earth's shadow,  

DLR